Home > Weather > Road Town > Past weeks

Flag for British Virgin Islands Weather for the Past 2 Weeks in Road Town, Tortola, British Virgin Islands

Now
79 °F

Passing clouds.


Feels Like: 82 °F
Forecast: 77 / 81 °F
Wind: 12 mph from Southeast

Location: Cyril E. King International Airport

Current Time: Feb 8, 2016 at 3:04:46 AM

Latest Report: Feb 8, 2016 at 1:53 AM


Visibility: 10 mi

Pressure: 30.03 "Hg

Humidity: 79%

Dew point: 72 °F

Location of Road TownLocation

Historic Weather in Road Town — Graph

°F

Road Town Temperature Yesterday

Maximum temperature yesterday: 82 °F (at 10:53 AM)
Minimum temperature yesterday: 73 °F (at 12:02 AM)
Average temperature yesterday: 79 °F

High & Low Weather Summary for the Past Weeks

 TemperatureHumidityPressure
High86 °F (Jan 26, 12:53 PM)97% (Jan 30, 7:53 AM)30.18 "Hg (Jan 30, 7:53 AM)
Low71 °F (Feb 5, 6:53 AM)51% (Jan 26, 11:53 AM)29.89 "Hg (Feb 4, 3:53 PM)
Average78 °F74%30.03 "Hg
* Reported Jan 24 1:53 AM — Feb 8 1:53 AM, Road Town, Weather by CustomWeather, © 2016

Note: Actual official high and low records may vary slightly from our data, if they occured in-between our weather recording intervals... More about our weather records

Advertising

Road Town Weather History for the Previous 24 Hours

 ConditionsComfort  
Time TempWeatherWind HumidityBarometerVisibility
1:53 AM
Mon, Feb 8
79 °FPassing clouds.12 mph79%30.03 "Hg10 mi
12:53 AM79 °FPassing clouds.10 mph79%30.04 "Hg10 mi
12:07 AM79 °FPassing clouds.12 mph79%30.05 "Hg10 mi
10:53 PM
Sun, Feb 7
79 °FPassing clouds.10 mph79%30.06 "Hg10 mi
8:53 PM79 °FPassing clouds.10 mph77%30.06 "Hg10 mi
7:53 PM79 °FClear.12 mph77%30.03 "Hg10 mi
6:53 PM79 °FClear.12 mph77%30.01 "Hg10 mi
5:53 PM80 °FSunny.10 mph71%30.01 "Hg10 mi
4:53 PM81 °FSunny.12 mph69%30.00 "Hg10 mi
3:53 PM81 °FSunny.12 mph69%29.99 "Hg10 mi
2:53 PM81 °FPassing clouds.15 mph77%29.99 "Hg10 mi
1:53 PM82 °FScattered clouds.15 mph74%30.01 "Hg10 mi
12:53 PM82 °FScattered clouds.16 mph72%30.04 "Hg10 mi
12:06 PM81 °FScattered clouds.16 mph74%30.06 "Hg10 mi
10:53 AM82 °FPassing clouds.15 mph70%30.07 "Hg10 mi
9:53 AM81 °FSunny.16 mph72%30.08 "Hg10 mi
8:53 AM80 °FScattered clouds.17 mph74%30.06 "Hg10 mi
7:53 AM80 °FScattered clouds.18 mph74%30.03 "Hg10 mi
7:42 AM80 °FBroken clouds.17 mph76%30.04 "Hg10 mi
7:13 AM79 °FPartly sunny.16 mph77%30.03 "Hg10 mi
6:53 AM79 °FScattered clouds.17 mph77%30.02 "Hg10 mi
5:53 AM79 °FPassing clouds.17 mph77%30.01 "Hg10 mi
4:53 AM79 °FClear.16 mph77%29.99 "Hg10 mi
3:53 AM79 °FOvercast.18 mph74%30.00 "Hg10 mi
Weather by CustomWeather, © 2016

See weather overviewHow to use our weather pages